Location: Unspecified
(50.7693°N, 0.0000°E)
Time: 04:42:16
(UTC+00:00)

Transit 2A - Pass Details

Date: 01 July 2019
Orbit: 596 x 962 km, 66.7° (Epoch: 16 August)

Event Time Altitude Azimuth Distance (km) Brightness Sun altitude
Rises 02:14:16 0° 293° (WNW) 3,613 9.4 -10.7°
Reaches altitude 10° 02:17:52 10° 313° (NW) 2,626 8.9 -10.4°
Maximum altitude 02:21:47 17° 353° (N) 2,090 9.0 -10.1°
Drops below altitude 10° 02:25:33 10° 33° (NNE) 2,491 10.3 -9.8°
Sets 02:28:50 0° 54° (NE) 3,351 10.8 -9.5°
